| time (UTC) | temp F | wind direction | speed knots | gust knots | rain 1hr in | rain 24hr in | rain mn in | humidity % | barometer mb |
| 20260509150050 | 77 | 85 | 0.0 | 0.0 | 0.00 | 0.00 | 0.00 | 93 | 1008.2 |
| 20260509144545 | 77 | 236 | 0.0 | 0.9 | 0.00 | 0.00 | 0.00 | 94 | 1008.4 |
| 20260509143048 | 76 | 220 | 0.0 | 0.9 | 0.00 | 0.00 | 0.00 | 95 | 1008.7 |
| 20260509141540 | 76 | 216 | 0.0 | 5.2 | 0.00 | 0.00 | 0.00 | 96 | 1008.6 |
| 20260509140038 | 76 | 201 | 1.7 | 4.3 | 0.00 | 0.00 | 0.00 | 96 | 1008.5 |
| 20260509134536 | 76 | 258 | 0.0 | 1.7 | 0.00 | 0.00 | 0.00 | 96 | 1008.1 |
| 20260509133034 | 76 | 206 | 0.0 | 3.5 | 0.00 | 0.00 | 0.00 | 96 | 1008.4 |
| 20260509131531 | 76 | 255 | 0.9 | 3.5 | 0.00 | 0.00 | 0.00 | 96 | 1008.6 |
| 20260509130031 | 75 | 204 | 0.0 | 2.6 | 0.00 | 0.00 | 0.00 | 96 | 1008.2 |
| 20260509124538 | 75 | 72 | 0.0 | 0.0 | 0.00 | 0.00 | 0.00 | 96 | 1008.5 |
| 20260509123026 | 75 | 72 | 0.0 | 0.0 | 0.00 | 0.00 | 0.00 | 96 | 1008.5 |
| 20260509121537 | 75 | 72 | 0.0 | 0.0 | 0.00 | 0.00 | 0.00 | 96 | 1008.3 |
| 20260509120022 | 75 | 72 | 0.0 | 0.0 | 0.00 | 0.00 | 0.00 | 96 | 1008.4 |
| 20260509114542 | 75 | 72 | 0.0 | 0.0 | 0.00 | 0.00 | 0.00 | 96 | 1008.3 |
| 20260509113021 | 75 | 72 | 0.0 | 0.0 | 0.00 | 0.00 | 0.00 | 96 | 1008.3 |
| 20260509111520 | 75 | 72 | 0.0 | 0.0 | 0.00 | 0.00 | 0.00 | 96 | 1008.3 |
| 20260509110021 | 75 | 72 | 0.0 | 0.0 | 0.00 | 0.00 | 0.00 | 96 | 1007.9 |
| 20260509104521 | 75 | 72 | 0.0 | 0.0 | 0.00 | 0.00 | 0.00 | 96 | 1007.8 |
| 20260509103019 | 75 | 72 | 0.0 | 0.0 | 0.00 | 0.00 | 0.00 | 96 | 1007.8 |
| 20260509101518 | 75 | 72 | 0.0 | 0.0 | 0.00 | 0.00 | 0.00 | 96 | 1007.7 |
| 20260509100018 | 75 | 72 | 0.0 | 0.0 | 0.00 | 0.00 | 0.00 | 96 | 1007.7 |
| 20260509094523 | 75 | 72 | 0.0 | 0.0 | 0.00 | 0.00 | 0.00 | 95 | 1007.5 |
| 20260509093017 | 74 | 72 | 0.0 | 0.0 | 0.00 | 0.00 | 0.00 | 96 | 1007.5 |
| 20260509091516 | 74 | 72 | 0.0 | 0.0 | 0.00 | 0.00 | 0.00 | 96 | 1007.2 |
| 20260509090041 | 74 | 72 | 0.0 | 0.0 | 0.00 | 0.00 | 0.00 | 95 | 1007.2 |
| 20260509084522 | 74 | 94 | 0.0 | 0.0 | 0.00 | 0.00 | 0.00 | 95 | 1007.3 |
| 20260509083034 | 74 | 178 | 0.0 | 0.0 | 0.00 | 0.00 | 0.00 | 95 | 1007.4 |
| 20260509081518 | 74 | 178 | 0.0 | 0.0 | 0.00 | 0.00 | 0.00 | 95 | 1007.5 |
| 20260509080012 | 74 | 178 | 0.0 | 0.9 | 0.00 | 0.00 | 0.00 | 95 | 1007.6 |
| 20260509074523 | 74 | 178 | 0.0 | 0.0 | 0.00 | 0.00 | 0.00 | 95 | 1007.9 |
| 20260509073008 | 74 | 178 | 0.0 | 0.0 | 0.00 | 0.00 | 0.00 | 95 | 1008.0 |
| 20260509071508 | 74 | 178 | 0.0 | 0.0 | 0.00 | 0.00 | 0.00 | 94 | 1008.1 |
| 20260509070006 | 74 | 178 | 0.0 | 0.0 | 0.00 | 0.00 | 0.00 | 94 | 1008.0 |
| 20260509064504 | 74 | 178 | 0.0 | 0.0 | 0.00 | 0.00 | 0.00 | 94 | 1007.8 |
| 20260509063003 | 74 | 178 | 0.0 | 0.9 | 0.00 | 0.00 | 0.00 | 94 | 1008.1 |
| 20260509061500 | 75 | 178 | 0.0 | 0.0 | 0.00 | 0.00 | 0.00 | 94 | 1008.2 |
| 20260509060059 | 75 | 178 | 0.0 | 0.0 | 0.00 | 0.00 | 0.00 | 94 | 1008.1 |
| 20260509054559 | 75 | 178 | 0.0 | 0.0 | 0.00 | 0.00 | 0.00 | 94 | 1008.0 |
| 20260509053056 | 75 | 178 | 0.0 | 0.0 | 0.00 | 0.00 | 0.00 | 94 | 1008.4 |
| 20260509051557 | 76 | 178 | 0.0 | 0.0 | 0.00 | 0.00 | 0.00 | 94 | 1008.2 |
| 20260509050100 | 76 | 182 | 0.0 | 0.9 | 0.00 | 0.00 | 0.00 | 94 | 1008.5 |
| 20260509044554 | 76 | 182 | 0.0 | 0.9 | 0.00 | 0.00 | 0.00 | 94 | 1008.6 |
| 20260509043054 | 76 | 98 | 0.0 | 0.9 | 0.00 | 0.00 | 0.00 | 94 | 1008.7 |
| 20260509041552 | 76 | 75 | 0.0 | 0.0 | 0.00 | 0.00 | 0.00 | 94 | 1008.6 |
| 20260509040050 | 76 | 75 | 0.0 | 2.6 | 0.00 | 0.00 | 0.00 | 94 | 1008.4 |
| 20260509034547 | 75 | 99 | 0.0 | 3.5 | 0.00 | 0.00 | 0.00 | 94 | 1008.1 |
| 20260509033058 | 75 | 89 | 0.9 | 5.2 | 0.00 | 0.00 | 0.00 | 94 | 1008.0 |
| 20260509031542 | 75 | 75 | 0.9 | 5.2 | 0.00 | 0.00 | 0.00 | 94 | 1008.1 |
| 20260509030042 | 75 | 79 | 0.0 | 5.2 | 0.00 | 0.00 | 0.00 | 94 | 1007.9 |
| 20260509024542 | 75 | 88 | 0.9 | 4.3 | 0.00 | 0.00 | 0.00 | 93 | 1007.8 |
| 20260509023041 | 75 | 84 | 0.9 | 4.3 | 0.00 | 0.00 | 0.00 | 93 | 1007.5 |
| 20260509021540 | 75 | 104 | 2.6 | 5.2 | 0.00 | 0.00 | 0.00 | 93 | 1007.6 |
| 20260509020038 | 75 | 105 | 0.0 | 6.1 | 0.00 | 0.00 | 0.00 | 93 | 1007.3 |
| 20260509014533 | 75 | 76 | 0.9 | 7.0 | 0.00 | 0.00 | 0.00 | 93 | 1007.1 |
| 20260509013035 | 75 | 94 | 2.6 | 7.0 | 0.00 | 0.00 | 0.00 | 93 | 1007.3 |
| 20260509011525 | 75 | 88 | 2.6 | 8.7 | 0.00 | 0.00 | 0.00 | 93 | 1007.3 |
| 20260509010020 | 75 | 136 | 0.9 | 6.1 | 0.00 | 0.00 | 0.00 | 92 | 1007.1 |
| 20260509004519 | 75 | 89 | 1.7 | 9.6 | 0.00 | 0.00 | 0.00 | 92 | 1007.2 |
| 20260509003018 | 74 | 102 | 2.6 | 7.8 | 0.00 | 0.00 | 0.00 | 92 | 1007.5 |
| 20260509001517 | 74 | 129 | 5.2 | 11.3 | 0.00 | 0.00 | 0.00 | 92 | 1006.7 |
| 20260509000033 | 75 | 101 | 3.5 | 10.4 | 0.00 | 0.00 | 0.00 | 91 | 1007.2 |
| 20260508234515 | 75 | 96 | 2.6 | 7.0 | 0.00 | 0.00 | 0.00 | 91 | 1007.7 |
| 20260508233015 | 75 | 70 | 3.5 | 7.8 | 0.00 | 0.00 | 0.00 | 91 | 1007.6 |
| 20260508231514 | 75 | 84 | 1.7 | 6.1 | 0.00 | 0.00 | 0.00 | 90 | 1007.5 |
| 20260508230011 | 75 | 77 | 2.6 | 7.8 | 0.00 | 0.00 | 0.00 | 90 | 1007.3 |
| 20260508224522 | 75 | 108 | 5.2 | 9.6 | 0.00 | 0.00 | 0.00 | 89 | 1007.1 |
| 20260508223005 | 75 | 81 | 0.9 | 6.1 | 0.00 | 0.00 | 0.00 | 89 | 1007.2 |
| 20260508221502 | 75 | 102 | 0.0 | 6.1 | 0.00 | 0.00 | 0.00 | 89 | 1007.5 |
| 20260508220058 | 74 | 90 | 1.7 | 7.0 | 0.00 | 0.00 | 0.00 | 89 | 1007.6 |
| 20260508214553 | 74 | 100 | 0.9 | 7.0 | 0.00 | 0.00 | 0.00 | 89 | 1007.7 |
| 20260508213048 | 74 | 95 | 1.7 | 6.1 | 0.00 | 0.00 | 0.00 | 88 | 1007.8 |
| 20260508211549 | 74 | 91 | 0.0 | 7.0 | 0.00 | 0.00 | 0.00 | 89 | 1007.8 |
| 20260508210044 | 73 | 85 | 0.9 | 3.5 | 0.00 | 0.00 | 0.00 | 89 | 1008.0 |
| 20260508204544 | 73 | 104 | 2.6 | 7.8 | 0.00 | 0.00 | 0.00 | 89 | 1007.8 |
| 20260508203041 | 73 | 69 | 4.3 | 8.7 | 0.00 | 0.00 | 0.00 | 90 | 1008.2 |
| 20260508201541 | 73 | 75 | 0.9 | 8.7 | 0.00 | 0.00 | 0.00 | 90 | 1008.7 |
| 20260508200045 | 73 | 84 | 3.5 | 8.7 | 0.00 | 0.00 | 0.00 | 91 | 1008.7 |
| 20260508194536 | 72 | 110 | 1.7 | 7.0 | 0.00 | 0.00 | 0.00 | 92 | 1008.9 |
| 20260508193043 | 71 | 101 | 6.1 | 11.3 | 0.00 | 0.00 | 0.00 | 93 | 1008.7 |
| 20260508191533 | 71 | 55 | 5.2 | 10.4 | 0.00 | 0.00 | 0.00 | 94 | 1008.7 |
| 20260508190031 | 70 | 79 | 5.2 | 10.4 | 0.00 | 0.00 | 0.00 | 94 | 1008.9 |
| 20260508184530 | 69 | 123 | 5.2 | 12.2 | 0.00 | 0.00 | 0.00 | 94 | 1009.1 |
| 20260508183028 | 69 | 75 | 4.3 | 8.7 | 0.00 | 0.00 | 0.00 | 94 | 1009.5 |
| 20260508181525 | 69 | 46 | 2.6 | 10.4 | 0.00 | 0.00 | 0.00 | 94 | 1009.8 |
| 20260508180026 | 69 | 72 | 3.5 | 8.7 | 0.00 | 0.00 | 0.00 | 94 | 1009.9 |
| 20260508174526 | 69 | 84 | 4.3 | 10.4 | 0.00 | 0.00 | 0.00 | 94 | 1009.9 |
| 20260508173026 | 69 | 102 | 5.2 | 11.3 | 0.00 | 0.00 | 0.00 | 94 | 1009.9 |
| 20260508171531 | 68 | 79 | 4.3 | 10.4 | 0.00 | 0.00 | 0.00 | 93 | 1009.9 |
| 20260508170018 | 68 | 82 | 2.6 | 8.7 | 0.00 | 0.00 | 0.00 | 93 | 1010.4 |
| 20260508164522 | 68 | 70 | 2.6 | 7.8 | 0.00 | 0.00 | 0.00 | 93 | 1010.7 |
| 20260508163017 | 68 | 73 | 5.2 | 10.4 | 0.00 | 0.00 | 0.00 | 92 | 1010.8 |
| 20260508161530 | 68 | 78 | 2.6 | 6.1 | 0.00 | 0.00 | 0.00 | 92 | 1011.0 |
| 20260508160019 | 68 | 93 | 5.2 | 11.3 | 0.00 | 0.00 | 0.00 | 93 | 1011.1 |
| 20260508154515 | 68 | 29 | 4.3 | 8.7 | 0.00 | 0.00 | 0.00 | 93 | 1011.3 |
| 20260508153012 | 68 | 84 | 3.5 | 7.0 | 0.00 | 0.00 | 0.00 | 93 | 1011.2 |
| 20260508151511 | 67 | 356 | 4.3 | 11.3 | 0.00 | 0.00 | 0.00 | 93 | 1010.9 |